sat.trackr.live / text

‹ back to catalog

COSMOS 2481

NORAD 38733 · 2012-041A

PAYLOAD ACTIVE UNKNOWN

§ Identity

Operator
Country
CIS
Launch date
2012-07-28
Launch site
PLMSC
Launch vehicle
Mass (kg)
RCS (m²)
0.90

External: N2YO · Heavens-Above · Gunter

§ Orbital elements

Epoch: 2026-05-25T04:27:25.224768Z

Period
115.90 min
Inclination
82.4731°
Eccentricity
0.0019609
Mean motion
12.42434234 rev/d
Perigee alt
1,480.9 km
Apogee alt
1,511.7 km
Semi-major
7,874.4 km
B*
3.3610e-4
RAAN
89.5668°
Arg perigee
123.2778°
Mean anomaly
237.0183°
Rev number
62,689

§ Raw data

COSMOS 24811 38733U 12041A   26145.18570862  .00000056  00000+0  33610-3 0  99932 38733  82.4731  89.5668 0019609 123.2778 237.0183 12.42434234626892

JSON: /api/v1/satellites/38733 · /tle

For live sub-satellite position, see the globe view (requires WebGL).

§ Visibility from observer

Set your observer location to see the next 7 days of passes ≥ 10°. The values pass through the URL so the page stays shareable.

No JS? Fill the form by hand. The geolocation button needs JavaScript.